Lid_Strength_Index
3 4 4 4 4 4 4 4 4 5 6 5 5 4 4 4 4 4 2 2 3 4 3 4 4 4 3 3 6 5 5 5 5 7 7 8 8 8 8 8 8 8 9 9 8 13 13 6 6 10 7 5 4 4
3 3 4 4 4 4 4 4 4 4 5 5 5 5 4 4 4 4 4 2 3 4 3 2 3 3 3 3 4 3 5 5 5 7 6 6 8 7 8 10 6 9 9 11 9 11 7 5 6 5 4 5 4 4
3 3 3 4 4 4 4 4 4 4 5 5 5 5 4 4 4 5 3 2 2 3 3 3 3 1 -0 0 0 4 3 3 3 3 5 6 9 9 10 8 7 6 5 7 7 6 6 5 4 4 4 4 4 3
3 3 3 4 4 4 3 3 3 3 4 5 5 5 4 4 4 5 2 2 2 3 5 4 0 1 -0 -0 1 1 2 2 2 3 5 5 7 5 8 8 8 7 5 7 7 6 5 5 5 4 4 3 3 3
3 3 3 3 4 4 3 3 3 3 3 4 5 5 4 4 4 3 1 1 1 3 5 4 2 1 0 1 1 1 1 2 3 4 5 6 4 6 5 6 7 5 7 7 10 6 6 6 4 4 4 4 3 3
3 3 3 3 4 3 3 3 3 3 3 4 5 5 5 4 4 3 3 1 0 1 4 5 2 2 1 1 1 2 2 2 3 4 4 3 4 6 8 9 6 5 4 4 6 4 4 4 4 3 4 4 3 3
3 3 3 3 3 3 3 3 3 3 3 4 4 5 4 4 3 4 4 3 4 1 3 5 5 2 1 1 2 2 2 2 3 3 4 5 5 5 7 10 6 5 4 4 3 4 5 4 5 3 3 3 3 2
3 3 3 3 3 3 3 3 3 3 3 4 5 5 4 4 4 5 1 3 5 4 3 5 5 4 1 4 4 2 3 3 3 4 3 4 5 5 8 5 4 4 4 4 3 3 3 3 3 3 2 3 3 3
3 3 3 3 3 3 3 3 3 3 4 4 4 4 3 4 4 2 2 2 1 3 5 5 6 7 2 3 2 3 3 6 3 5 5 4 6 7 5 4 4 4 5 4 3 3 3 4 4 3 3 3 3 3
3 3 3 3 3 3 3 3 3 3 4 5 5 5 5 2 2 2 2 3 4 4 4 6 3 5 3 4 5 4 4 6 7 5 4 5 6 3 3 3 3 3 3 3 4 5 4 3 4 3 3 3 2 2
2 2 3 3 3 3 3 3 3 4 5 5 6 4 1 3 1 3 5 6 5 7 5 5 4 5 2 5 5 4 6 5 9 6 7 7 7 4 3 3 3 3 3 2 2 3 2 3 3 4 3 2 2 2
2 2 2 2 2 2 2 3 4 4 4 5 3 2 1 3 4 6 7 6 7 7 4 4 4 4 3 2 4 5 7 6 11 6 8 9 8 4 4 3 3 3 3 3 2 3 3 2 2 2 2 3 2 2
-0 1 1 1 1 1 2 3 3 4 4 2 3 5 4 5 10 10 10 8 7 5 4 4 5 3 3 3 5 6 8 8 5 9 9 8 6 4 4 4 3 2 2 2 3 2 2 2 2 2 2 2 1 2
-1 -1 0 -0 0 1 2 2 3 4 3 5 6 11 7 9 8 8 7 6 4 3 4 3 4 5 4 5 5 9 6 6 10 10 9 8 6 5 4 3 2 3 3 3 3 3 2 2 2 2 2 1 2 2
-1 -1 -1 -1 -1 -1 0 1 3 2 3 5 5 11 8 5 4 5 4 3 3 1 3 4 5 4 5 6 5 7 9 11 9 10 8 6 4 4 4 3 3 3 3 3 2 2 2 2 2 2 1 1 1 1
-1 -1 -1 -1 -1 -1 0 1 2 1 2 4 5 6 5 6 6 5 4 4 3 3 3 4 6 7 8 6 9 9 10 10 9 8 5 4 4 4 3 3 3 2 3 3 3 2 2 2 2 2 2 1 2 2
-1 1 -1 -1 -1 -0 0 0 2 5 4 5 5 3 3 4 4 4 3 3 1 4 7 6 9 9 5 8 9 7 8 6 6 6 4 4 4 3 3 3 2 2 3 3 3 2 2 2 2 2 2 2 1 1
0 -2 -1 -1 -0 0 1 1 2 4 6 4 5 4 3 4 4 3 3 2 2 4 4 7 5 8 8 10 8 6 5 4 4 4 3 3 3 2 2 3 2 2 2 2 2 2 2 2 2 3 2 2 2 2
-1 -2 -1 -1 -0 1 3 3 2 6 5 4 3 3 3 3 2 2 2 2 2 2 4 4 7 7 8 5 6 5 4 4 4 3 2 2 2 3 3 2 2 3 2 2 2 2 3 2 2 2 2 2 3 2
-1 -1 -1 -1 1 2 4 3 2 5 6 4 3 3 3 3 3 2 2 3 3 4 5 5 6 6 5 4 3 4 3 3 3 4 3 3 2 2 2 2 3 2 2 2 2 5 2 2 2 2 2 2 3 3
1 1 0 1 0 1 2 3 4 4 4 4 3 4 4 3 4 4 4 3 4 5 6 5 5 4 2 2 2 2 2 2 3 3 4 4 3 3 3 3 3 3 3 3 3 3 3 3 2 2 2 2 2 2
1 1 0 1 2 2 3 2 3 2 4 4 5 4 5 6 5 5 3 5 5 5 4 4 4 4 3 2 2 2 2 2 1 2 4 4 4 4 4 3 3 3 3 3 3 3 3 2 2 1 2 2 3 2
1 0 1 2 4 5 6 1 5 5 7 6 5 7 6 6 5 2 5 4 4 2 2 2 2 1 2 2 2 2 2 2 3 2 3 3 3 2 2 2 2 3 3 3 2 2 2 4 3 2 2 2 2 2
3 2 5 5 4 7 3 5 4 4 4 6 6 8 7 6 3 5 6 4 3 2 2 2 2 2 2 2 3 3 2 2 3 3 3 3 3 3 2 2 2 2 2 2 2 2 2 1 3 2 2 2 2 2
6 6 5 9 4 6 7 7 6 6 8 7 7 7 6 3 6 7 7 5 3 3 2 2 3 2 3 3 2 3 1 2 3 4 3 2 3 2 2 2 1 1 0 1 1 1 1 1 1 1 1 1 1 1
10 6 9 6 5 7 5 8 8 7 6 7 6 4 3 5 9 11 7 5 3 3 2 3 3 3 3 2 3 3 2 1 2 3 2 1 1 2 3 3 2 2 0 1 1 2 2 1 1 1 1 2 5 2
9 7 4 2 3 4 5 4 3 5 7 7 5 7 6 10 10 6 3 2 3 3 2 1 2 3 3 3 2 1 1 1 1 1 1 1 -0 0 1 2 3 1 0 0 0 1 2 1 2 1 1 0 1 0
6 5 8 5 4 4 7 6 7 7 6 4 5 9 9 9 9 4 3 2 2 1 1 1 0 1 1 1 1 1 1 1 0 0 1 0 0 -0 0 -0 -0 6 0 0 0 0 -0 0 0 1 1 1 0 0
6 5 4 8 7 6 6 7 6 5 4 5 7 7 7 5 3 2 2 1 1 3 3 3 2 1 1 1 1 1 2 2 2 3 3 3 2 2 0 -0 0 -0 -0 0 8 4 1 0 0 0 0 1 -0 -0
7 5 7 8 8 8 6 4 5 4 3 4 4 4 5 4 2 2 2 2 3 3 2 2 1 2 2 2 2 2 1 1 1 2 3 2 2 1 0 0 0 -0 -0 -0 0 0 6 2 2 0 1 1 1 1
7 7 8 8 8 6 5 4 3 4 4 5 4 5 6 4 2 1 2 2 2 2 3 3 3 2 2 2 2 2 3 0 0 0 0 0 -0 0 1 -0 0 -0 -0 1 1 1 1 1 1 1 1 1 1 1
7 8 8 9 8 5 4 5 5 6 6 6 6 5 5 6 5 3 1 1 2 4 3 2 3 2 1 0 -1 -0 4 0 -0 0 -0 -0 0 -0 -0 0 1 -0 -0 1 1 1 0 1 1 1 1 1 1 1
5 6 6 6 6 6 5 5 6 6 5 6 6 5 5 4 6 3 1 0 2 2 2 1 0 -0 0 0 0 -0 3 -0 4 9 8 9 10 6 1 0 -0 -0 0 0 0 0 0 1 1 1 1 1 1 1